Weather Roundup
Issued by NWS

Home | Current Version | Previous Version | Graphics & Text | Print | Product List | Glossary Off
Versions: 1 2 3 4 5 6 7 8 9 10 11 12 13 14 15 16 17 18 19 20 21 22 23 24 25 26 27 28 29 30 31 32 33 34 35 36 37 38 39 40 41 42 43 44 45 46 47 48 49 50

142
NZUS93 KARX 252310
HRRWXR

CURRENT HOURLY OBSERVATIONS ACROSS
MUCH OF THE UPPER MISSISSIPPI VALLEY
NATIONAL WEATHER SERVICE LA CROSSE WI
600 PM CDT MON SEP 25 2017


...SOUTHEAST MINNESOTA...


CITY           SKY/WX    TMP DP  RH WIND       PRES   REMARKS
ROCHESTER      CLOUDY    67  62  84 NW12      29.95R
ROCHESTER/MAYO CLOUDY    67  62  82 NW9       29.95R
WINONA         PTCLDY    73  64  73 SE5       29.91S
AUSTIN         CLOUDY    64  61  88 N6        29.94R
ALBERT LEA     CLOUDY    66  63  88 N7        29.96R
DODGE CENTER   CLOUDY    64  59  82 N12       29.95S
PRESTON        MOCLDY    73  64  73 SE3       29.93R
OWATONNA       CLOUDY    63  59  88 N9        29.97S
FARIBAULT      CLOUDY    61  57  88 N9        29.98R
$$

...ELSEWHERE IN MINNESOTA...


CITY           SKY/WX    TMP DP  RH WIND       PRES   REMARKS
MINNEAPOLIS    CLOUDY    61  57  87 N9        29.98R
INTNL FALLS    CLOUDY    54  49  83 N8        30.07R
DULUTH         CLOUDY    56  55  97 N8        30.01R
RED WING       CLOUDY    64  57  77 N5        29.95R
REDWOOD FALLS  LGT RAIN  59  53  80 N7        29.99S
MANKATO        LGT RAIN  58  56  93 NE10      29.96F
WORTHINGTON    LGT RAIN  55  54  96 N9        29.99S FOG
FAIRMONT       CLOUDY    58  56  93 N5        29.98R
$$

...SOUTHWEST WISCONSIN...


CITY           SKY/WX    TMP DP  RH WIND       PRES   REMARKS
LA CROSSE      CLOUDY    73  67  81 SE5       29.91R
PRAIRIE DU CHI CLOUDY    69  65  86 W10       29.93R
BOSCOBEL       TSTM      69  65  86 NE5       29.93F
LONE ROCK      LGT RAIN  73  66  78 NW14      29.93R
PLATTEVILLE    PTCLDY    74  65  72 N8        29.92F
FORT MC COY    CLOUDY    67  64  93 SW5       29.93R
CAMP DOUGLAS   MOCLDY    70  64  83 W3        29.90F
MAUSTON-NEW LI CLOUDY    70  65  84 SW6       29.92S
VIROQUA        CLOUDY    66  65  96 S10       29.95S
WIS DELLS      MOCLDY    75  62  64 NW6       29.92R
$$

...ELSEWHERE IN WISCONSIN...


CITY           SKY/WX    TMP DP  RH WIND       PRES   REMARKS
MILWAUKEE      PTCLDY    82  61  48 SE9       29.93S
MADISON        PTCLDY    87  59  38 VRB5      29.90R
GREEN BAY      CLEAR     82  64  54 SE12      29.91R
EAU CLAIRE     CLOUDY    70  66  87 NW10      29.91R
BLACK RVR FLS  FAIR      71  71  99 W3        29.91R
MEDFORD        RAIN      67  65  91 SE8       29.92S
WAUSAU         MOCLDY    80  63  55 CALM      29.89F
WIS RAPIDS     CLOUDY    75  61  61 W6        29.93R
MARSHFIELD     CLOUDY    72  64  76 SW6       29.92S
RICE LAKE      CLOUDY    61  58  90 N10       29.98S
$$

...NORTHEAST IOWA...


CITY           SKY/WX    TMP DP  RH WIND       PRES   REMARKS
WATERLOO       CLOUDY    71  67  87 CALM      29.88R
DUBUQUE        PTCLDY    84  65  52 S5        29.91R
DECORAH        MOCLDY    68  64  88 SE9       29.90F
MASON CITY     RAIN      65  62  90 W6        30.00R FOG
CHARLES CITY   PTSUNNY   73  68  83 SW15      29.96R
OELWEIN        CLOUDY    70  70 100 E7        29.91S
$$

...ELSEWHERE IN IOWA...


CITY           SKY/WX    TMP DP  RH WIND       PRES   REMARKS
DES MOINES     TSTM      69  67  93 N12       29.90F
IOWA CITY      CLEAR     88  63  43 SW7       29.88R
FORT DODGE     CLOUDY    63  62  97 SE5       29.97R
MARSHALLTOWN   LGT RAIN  69  66  90 N12       29.91R
CEDAR RAPIDS   CLEAR     86  62  44 S10       29.87R
$$

...NORTHERN ILLINOIS...


CITY           SKY/WX    TMP DP  RH WIND       PRES   REMARKS
CHICAGO-OHARE  PTCLDY    87  54  32 SE15      29.91S
CHICAGO-MIDWAY PTCLDY    87  54  32 E10       29.92S
MOLINE         PTCLDY    83  65  54 SW7       29.88R
ROCKFORD       PTCLDY    87  57  35 SE9       29.91S
PEORIA         CLEAR     88  59  37 S6        29.90R
$$

NOTE: "FAIR" INDICATES FEW OR NO CLOUDS BELOW 12,000 FEET WITH NO
SIGNIFICANT WEATHER AND/OR OBSTRUCTIONS TO VISIBILITY. WIND
SPEEDS ARE IN MILES-PER-HOUR.




USA.gov is the U.S. government's official web portal to all federal, state and local government web resources and services.